This is the latest recevied weather packets stored in our database for station/object KF0FSA. If no packets are shown the sender has not sent any weather packets the latest 1 day(s).
| Time | Temp. | Humidity | Pressure | Rain* | Wind** | Luminosity | Snow |
|---|---|---|---|---|---|---|---|
| 1778035470 | 5.56° C | 51% | 961.6 hPa | 0 mm | - | 0 W/m² | - |
| 1778035294 | 5.56° C | 50% | 961.4 hPa | 0 mm | - | 0 W/m² | - |
| 1778034870 | 6.11° C | 49% | 961.3 hPa | 0 mm | - | 0 W/m² | - |
| 1778034694 | 6.11° C | 48% | 961.2 hPa | 0 mm | - | 0 W/m² | - |
| 1778034270 | 6.11° C | 48% | 961.1 hPa | 0 mm | - | 0 W/m² | - |
| 1778033970 | 6.11° C | 48% | 961.1 hPa | 0 mm | - | 0 W/m² | - |
| 1778033670 | 6.67° C | 47% | 960.9 hPa | 0 mm | - | 0 W/m² | - |
| 1778033370 | 6.67° C | 46% | 960.8 hPa | 0 mm | - | 0 W/m² | - |
| 1778033071 | 6.67° C | 45% | 960.7 hPa | 0 mm | - | 0 W/m² | - |
| 1778032770 | 6.67° C | 45% | 960.6 hPa | 0 mm | - | 0 W/m² | - |
| 1778032592 | 7.22° C | 44% | 960.6 hPa | 0 mm | - | 0 W/m² | - |
| 1778032165 | 7.22° C | 44% | 960.7 hPa | 0 mm | - | 0 W/m² | - |
| 1778031862 | 7.22° C | 44% | 960.6 hPa | 0 mm | - | 0 W/m² | - |
| 1778031558 | 7.22° C | 43% | 960.4 hPa | 0 mm | - | 2 W/m² | - |
| 1778031259 | 7.78° C | 43% | 960.5 hPa | 0 mm | - | 4 W/m² | - |
| 1778030959 | 7.78° C | 41% | 960.4 hPa | 0 mm | - | 7 W/m² | - |
| 1778030783 | 7.78° C | 41% | 960.2 hPa | 0 mm | - | 11 W/m² | - |
| 1778030359 | 7.78° C | 40% | 960.2 hPa | 0 mm | - | 13 W/m² | - |
| 1778029759 | 8.33° C | 39% | 960.2 hPa | 0 mm | - | 20 W/m² | - |
| 1778029460 | 8.33° C | 40% | 960.1 hPa | 0 mm | - | 28 W/m² | - |
| 1778029159 | 8.33° C | 39% | 960.1 hPa | 0 mm | - | 36 W/m² | - |
| 1778028859 | 8.89° C | 39% | 960 hPa | 0 mm | - | 49 W/m² | - |
| 1778028383 | 8.89° C | 37% | 959.8 hPa | 0 mm | - | 57 W/m² | - |
| 1778027959 | 8.89° C | 37% | 959.7 hPa | 0 mm | - | 75 W/m² | - |
| 1778027656 | 8.89° C | 38% | 959.7 hPa | 0 mm | - | 87 W/m² | - |
* Rain latest hour (hover to see other rain measurements)
** Current wind speed in m/s (hover to see current wind gust speed)